Tracking 34719 objects as of 12-Jul-2026
HD Live streaming from Space Station
objects crossing your sky now

STARLINK-37309

Track STARLINK-37309 now!
10-day predictions
STARLINK-37309 is classified as:


NORAD ID: 69364
Int'l Code: 2026-123M
Perigee: 349.3 km
Apogee: 351.0 km
Inclination: 53.2 °
Period: 91.4 minutes
Semi major axis: 6721 km
RCS: Unknown
Launch date: June 4, 2026
Source: United States (US)
Launch site: AIR FORCE EASTERN TEST RANGE (AFETR)
Your satellite tracking list
Your tracking list is empty




NASA's NSSDC Master Catalog

Two Line Element Set (TLE):
1 69364U 26123M   26192.22061891  .00287572  00000-0  17918-2 0  9990
2 69364  53.1588 121.6490 0001239 191.5462 168.5530 15.75560595  5838
Source of the keplerian elements: AFSPC